San Benito, TX

9:35 AM CDT on September 30, 2016 (GMT -0500)
Valley International

Weather History for KHRL - October, 2013

Change the Weather History Date:

Sunday, October 13, 2013

  Actual Average Record
Temperature  
Mean Temperature 82 °F 77 °F  
Max Temperature 91 °F 87 °F 98 °F (1931)
Min Temperature 72 °F 66 °F 49 °F (1977)
Degree Days  
Heating Degree Days 0 0  
Month to date heating degree days 0 0  
Since 1 July heating degree days 0 0  
Cooling Degree Days 17 12  
Month to date cooling degree days 180 167  
Year to date cooling degree days 3695 3596  
Growing Degree Days 32 (Base 50)    
Moisture  
Dew Point 73 °F    
Average Humidity 75    
Maximum Humidity 100    
Minimum Humidity 49    
Precipitation  
Precipitation 0.00 in 0.10 in 3.54 in (1997)
Month to date precipitation 0.07 1.14  
Year to date precipitation 21.11 20.57  
Sea Level Pressure  
Sea Level Pressure 30.00 in    
Wind  
Wind Speed 10 mph (SE)    
Max Wind Speed 21 mph    
Max Gust Speed 26 mph    
Visibility 10 miles    
Events      
T = Trace of Precipitation, MM = Missing Value Source: NWS Daily Summary

Daily Weather History Graph

Daily Weather History Graph

Search for Another Location

Airport or City:

Trip Planner

Search our weather history database for the weather conditions in past years. The results will help you decide how hot, cold, wet, or windy it might be!

Date:

Astronomy

Oct. 13, 2013 Rise Set
Actual Time 7:28 AM CDT 7:04 PM CDT
Civil Twilight 7:05 AM CDT 7:27 PM CDT
Nautical Twilight 6:38 AM CDT 7:54 PM CDT
Astronomical Twilight 6:11 AM CDT 8:21 PM CDT
Moon 3:29 PM CDT (10/13) 2:10 AM CDT (10/13)
Length of Visible Light 12h 21m
Length of Day
11h 35m
Waxing Gibbous, 69% of the Moon is Illuminated
Oct 13
Waxing Gibbous
Oct 18
Full
Oct 26
Last Quarter
Nov 3
New
Nov 9
First Quarter

Hourly Weather History & Observations

Time (CDT) Temp. Heat Index Dew Point Humidity Pressure Visibility Wind Dir Wind Speed Gust Speed Precip Events Conditions
12:52 AM 75.9 °F - 73.9 °F 94% 29.99 in 10.0 mi SE 3.5 mph - N/A   Clear
1:52 AM 75.0 °F - 73.0 °F 94% 29.98 in 10.0 mi SE 4.6 mph - N/A   Clear
2:52 AM 75.9 °F - 73.9 °F 94% 29.98 in 10.0 mi SSE 5.8 mph - N/A   Clear
3:52 AM 75.9 °F - 75.0 °F 97% 29.98 in 10.0 mi ESE 4.6 mph - N/A   Mostly Cloudy
4:07 AM 75.2 °F - 75.2 °F 100% 29.97 in 10.0 mi ESE 3.5 mph - N/A   Partly Cloudy
4:52 AM 73.9 °F - 73.0 °F 97% 29.98 in 7.0 mi ESE 3.5 mph - N/A   Clear
5:52 AM 73.9 °F - 73.0 °F 97% 29.99 in 7.0 mi ESE 4.6 mph - N/A   Clear
6:52 AM 73.9 °F - 72.0 °F 93% 30.01 in 7.0 mi Calm Calm - N/A   Clear
7:52 AM 73.0 °F - 72.0 °F 96% 30.02 in 7.0 mi ESE 4.6 mph - N/A   Clear
8:52 AM 79.0 °F - 77.0 °F 94% 30.04 in 10.0 mi SE 8.1 mph - N/A   Clear
9:52 AM 82.9 °F 90.8 °F 75.9 °F 79% 30.05 in 10.0 mi SSE 13.8 mph - N/A   Partly Cloudy
10:52 AM 84.9 °F 92.1 °F 73.9 °F 69% 30.06 in 10.0 mi SSE 11.5 mph - N/A   Partly Cloudy
11:52 AM 87.1 °F 95.4 °F 73.9 °F 65% 30.05 in 10.0 mi SE 17.3 mph 25.3 mph N/A   Partly Cloudy
12:52 PM 89.1 °F 99.1 °F 75.0 °F 63% 30.03 in 10.0 mi ESE 15.0 mph 21.9 mph N/A   Clear
1:52 PM 91.0 °F 96.6 °F 70.0 °F 50% 29.99 in 10.0 mi SE 13.8 mph 23.0 mph N/A   Partly Cloudy
2:52 PM 91.0 °F 99.3 °F 73.0 °F 55% 29.95 in 10.0 mi SE 12.7 mph 19.6 mph N/A   Partly Cloudy
3:52 PM 90.0 °F 96.4 °F 71.1 °F 54% 29.94 in 10.0 mi SE 12.7 mph 24.2 mph N/A   Partly Cloudy
4:52 PM 89.1 °F 94.1 °F 70.0 °F 53% 29.94 in 10.0 mi SSE 17.3 mph 24.2 mph N/A   Clear
5:52 PM 87.1 °F 92.8 °F 71.1 °F 59% 29.94 in 10.0 mi SE 16.1 mph - N/A   Clear
6:52 PM 84.0 °F 89.0 °F 71.1 °F 65% 29.97 in 10.0 mi SE 15.0 mph - N/A   Clear
7:52 PM 82.0 °F 86.7 °F 72.0 °F 71% 29.99 in 10.0 mi SE 10.4 mph - N/A   Clear
8:52 PM 80.1 °F 84.2 °F 73.0 °F 79% 30.00 in 10.0 mi SE 13.8 mph - N/A   Clear
9:52 PM 79.0 °F - 73.0 °F 82% 30.01 in 10.0 mi SE 12.7 mph - N/A   Clear
10:52 PM 79.0 °F - 73.0 °F 82% 30.01 in 10.0 mi SE 11.5 mph - N/A   Partly Cloudy
11:52 PM 78.1 °F - 72.0 °F 81% 30.01 in 10.0 mi SE 10.4 mph - N/A   Clear